#timestamp,LO_Frequency,Hit,StdDev 
1580979875.6,286046986.1,P
1580979895.4,286046984.2,P
1580979915.3,286046982.1,P
1580979935.1,286046983.5,Y
1580979955.8,286046998.7,P
1580979975.7,286046996.6,N
1580979995.5,286046999.2,N
1580980015.4,286047000.8,N
1580980035.2,286047001.2,N
1580980055.0,286046998.7,N
1580980055.9,286046998.7,N
1580980075.8,286046997.0,N
1580980095.6,286046995.6,N
1580980115.4,286046994.2,N
1580980135.3,286046994.6,N
1580980155.1,286046992.2,N
1580980175.8,286046994.2,N
1580980195.7,286046994.7,N
1580980215.5,286046994.3,N
1580980235.4,286046993.5,N
1580980255.2,286046991.7,N
1580980275.0,286046992.1,N
1580980275.9,286046992.1,N
1580980295.8,286046993.2,N
1580980315.6,286046990.8,N
1580980335.4,286046990.1,N
1580980355.3,286046991.3,N
1580980375.1,286046990.7,N
1580980395.9,286046991.3,N
1580980415.7,286046988.8,N
1580980435.5,286046989.1,N
1580980455.4,286046990.0,N
1580980475.2,286046987.4,Y
1580980495.0,286046992.2,P
1580980496.0,286046992.2,P
1580980515.8,286046994.8,P
1580980535.6,286046992.6,Y
1580980555.5,286046996.9,P
1580980575.3,286046997.2,N
1580980595.1,286046997.8,N
1580980615.9,286046995.4,N
1580980635.7,286046995.5,N
1580980655.6,286046998.0,N
1580980675.4,286046995.1,Y
1580980695.2,286046998.9,P
1580980715.1,286046996.5,N
1580980716.0,286046996.5,N
1580980735.8,286046996.7,Y
1580980755.6,286046999.7,P
1580980775.5,286047000.2,N
1580980795.3,286047001.1,N
1580980815.2,286046998.7,N
1580980835.9,286046999.5,N
1580980855.7,286046996.8,N
1580980875.6,286046999.3,N
1580980895.4,286046999.1,N
1580980915.2,286046999.4,N
1580980935.1,286046999.5,N
1580980936.0,286046999.5,N
1580980955.8,286046997.0,N
1580980975.7,286046996.8,N
1580980995.5,286046995.9,Y
1580981015.3,286046993.8,P
1580981035.2,286046993.9,N
1580981055.0,286046994.1,N
1580981055.9,286046994.1,N
1580981075.8,286046994.8,N
1580981095.6,286046992.5,Y
1580981115.4,286046997.5,P
1580981135.3,286046998.0,N
1580981155.1,286046997.1,N
1580981175.8,286046997.5,N
1580981195.7,286046997.6,N
1580981215.5,286046994.9,Y
1580981235.4,286046998.8,P
1580981255.2,286046999.4,N
1580981275.0,286046999.6,N
1580981275.9,286046999.6,N
1580981295.8,286046995.4,Y
1580981315.6,286046997.3,P
1580981335.4,286046997.8,N
1580981355.3,286046995.3,P
1580981375.1,286046995.8,Y
1580981395.9,286046999.5,P
1580981415.7,286046996.5,P
1580981435.5,286046999.0,N
1580981455.4,286046996.9,N
1580981475.2,286046996.9,N
1580981495.1,286046995.7,Y
1580981496.0,286046995.7,P
1580981515.8,286046999.4,N
1580981535.6,286046996.6,N
1580981555.5,286046997.0,N
1580981575.3,286046999.6,N
1580981595.1,286046996.5,N
1580981615.9,286046999.1,N
1580981635.7,286046997.6,N
1580981655.6,286046995.3,Y
1580981675.4,286046999.6,P
1580981695.2,286046999.5,N
1580981715.1,286046999.6,N
1580981716.0,286046999.6,N
1580981735.8,286046996.6,Y
1580981755.7,286046999.0,P
1580981775.5,286046997.0,P
1580981795.3,286046994.9,P
1580981815.2,286046997.3,N
1580981835.0,286046998.0,N
1580981835.9,286046998.0,N
1580981855.7,286046997.8,N
1580981875.6,286046997.1,N
1580981895.4,286046997.5,N
1580981915.3,286046997.2,N
1580981935.1,286046997.5,N
1580981936.0,286046997.5,N
1580981955.8,286046995.4,Y
1580981975.7,286046999.2,P
1580981995.5,286046999.4,N
1580982015.3,286046997.8,N
1580982035.2,286046997.6,N
1580982055.0,286046994.9,Y
1580982055.9,286046994.9,P
1580982075.8,286046998.9,N
1580982095.6,286047000.3,N
1580982115.4,286046998.1,N
1580982135.3,286046999.3,N
1580982155.1,286047000.8,N
1580982175.8,286047001.1,N
1580982195.7,286046998.5,N
1580982215.5,286046999.1,N
1580982235.4,286046997.7,N
1580982255.2,286046994.9,Y
1580982275.0,286046999.0,P
1580982275.9,286046999.0,P
1580982295.8,286046997.1,P
1580982315.6,286046997.4,Y
1580982335.5,286046999.1,P
1580982355.3,286046996.6,P
1580982375.1,286046996.6,P
1580982395.9,286046997.3,N
1580982415.7,286046994.9,Y
1580982435.5,286046999.3,P
1580982455.4,286046999.2,N
1580982475.2,286046999.6,N
1580982495.1,286046996.8,Y
1580982496.0,286046996.8,P
1580982515.8,286046999.1,N
1580982535.6,286046999.4,N
1580982555.5,286046999.4,N
1580982575.3,286046997.0,Y
1580982595